Terminal Aerodrome Forecast
Issued by NWS

Current Version | Previous Version | Graphics & Text | Print | Product List | Glossary On
Versions: 1 2 3 4 5 6 7 8 9 10 11 12 13 14 15 16 17 18 19 20 21 22 23 24 25
000
FTUS41 KPBZ 190900 AAB
TAFMGW
TAF AMD
KMGW 190959Z 1910/2006 36003KT 4SM BR BKN090
      TEMPO 1910/1912 2SM BR
     FM191400 VRB04KT P6SM SCT090
     FM200500 17006KT P6SM VCSH BKN040=

USA.gov is the U.S. government's official web portal to all federal, state and local government web resources and services.